FW0960 Weather Reports


Display with metric or nautical units.
time (UTC)temp
F
wind
direction
speed
MPH
gust
MPH
rain 1hr
in
rain 24hr
in
rain mn
in
humidity
%
barometer
mb
20260901005216 76 269 0.0 0.0 0.00 0.00 0.00 94 1018.8
20260901004710 76 269 0.0 1.0 0.00 0.00 0.00 94 1018.8
20260901004209 76 269 0.0 1.0 0.00 0.00 0.00 94 1018.8
20260901003709 76 269 0.0 1.0 0.00 0.00 0.00 94 1018.7
20260901003208 76 269 0.0 1.0 0.00 0.00 0.00 94 1018.6
20260901002706 76 269 0.0 0.0 0.00 0.00 0.00 94 1018.5
20260901002204 76 269 0.0 0.0 0.00 0.00 0.00 94 1018.4
20260901001707 76 269 0.0 0.0 0.00 0.00 0.00 94 1018.5
20260901001221 76 269 0.0 0.0 0.00 0.00 0.00 93 1018.6
20260901000205 76 269 0.0 0.0 0.00 0.00 0.00 93 1018.6
20260831235701 76 269 0.0 0.0 0.00 0.00 0.00 93 1018.6
20260831235203 76 269 0.0 1.0 0.00 0.00 0.00 93 1018.6
20260831234708 76 269 0.0 1.0 0.00 0.00 0.00 93 1018.7
20260831234158 76 269 0.0 0.0 0.00 0.00 0.00 93 1018.7
20260831233654 76 269 0.0 0.0 0.00 0.00 0.00 93 1018.7
20260831233152 76 269 0.0 0.0 0.00 0.00 0.00 92 1018.8
20260831232654 76 269 0.0 0.0 0.00 0.00 0.00 92 1018.7
20260831232154 76 269 0.0 0.0 0.00 0.00 0.00 92 1018.9
20260831231646 76 269 0.0 0.0 0.00 0.00 0.00 92 1018.9
20260831231148 77 269 0.0 0.0 0.00 0.00 0.00 92 1019.0
20260831230147 77 269 0.0 0.0 0.00 0.00 0.00 92 1019.0
20260831225146 77 269 0.0 0.0 0.00 0.00 0.00 91 1019.1
20260831224639 77 269 0.0 0.0 0.00 0.00 0.00 91 1019.0
20260831223636 77 269 0.0 0.0 0.00 0.00 0.00 91 1019.0
20260831223133 77 269 0.0 0.0 0.00 0.00 0.00 91 1019.3
20260831222635 77 269 0.0 0.0 0.00 0.00 0.00 91 1019.4
20260831222134 77 269 0.0 0.0 0.00 0.00 0.00 91 1019.2
20260831221632 77 269 0.0 0.0 0.00 0.00 0.00 91 1019.4
20260831220640 77 269 0.0 1.0 0.00 0.00 0.00 90 1019.5
20260831220132 78 269 0.0 1.0 0.00 0.00 0.00 90 1019.5
20260831215126 78 269 0.0 1.0 0.00 0.00 0.00 90 1019.8
20260831214633 78 269 0.0 1.0 0.00 0.00 0.00 90 1019.8
20260831214123 78 269 0.0 1.0 0.00 0.00 0.00 89 1019.9
20260831213623 78 269 0.0 1.0 0.00 0.00 0.00 90 1019.9
20260831213119 78 269 0.0 1.0 0.00 0.00 0.00 90 1019.8
20260831212620 78 269 0.0 1.0 0.00 0.00 0.00 90 1019.6
20260831212121 78 269 0.0 2.0 0.00 0.00 0.00 90 1019.5
20260831211619 78 269 0.0 2.0 0.00 0.00 0.00 90 1019.5
20260831211120 78 271 0.0 1.0 0.00 0.00 0.00 91 1019.4
20260831205108 78 271 0.0 1.0 0.00 0.00 0.00 91 1019.6
20260831204605 78 271 0.0 1.0 0.00 0.00 0.00 90 1019.5
20260831204141 78 271 0.0 1.0 0.00 0.00 0.00 91 1019.2
20260831203606 78 271 0.0 1.0 0.00 0.00 0.00 90 1019.1
20260831203108 78 271 0.0 1.0 0.00 0.00 0.00 90 1019.0
20260831202650 78 271 0.0 1.0 0.00 0.00 0.00 90 1019.0
20260831202105 78 271 0.0 1.0 0.00 0.00 0.00 90 1019.1
20260831201110 78 269 1.0 1.0 0.00 0.00 0.00 90 1019.0
20260831195604 79 256 0.0 2.0 0.00 0.00 0.00 89 1019.2
20260831195113 79 250 0.0 1.0 0.00 0.00 0.00 90 1019.3
20260831194559 79 250 0.0 1.0 0.00 0.00 0.00 90 1019.2
20260831194100 79 250 1.0 2.0 0.00 0.00 0.00 89 1019.2
20260831193558 80 250 0.0 2.0 0.00 0.00 0.00 88 1019.2
20260831193055 80 250 0.0 2.0 0.00 0.00 0.00 90 1019.1
20260831192555 80 250 0.0 2.0 0.00 0.00 0.00 88 1019.1
20260831192056 80 250 1.0 2.0 0.00 0.00 0.00 89 1019.2
20260831191050 80 248 0.0 2.0 0.00 0.00 0.00 90 1019.2
20260831190549 80 248 1.0 2.0 0.00 0.00 0.00 89 1019.3
20260831190050 80 245 0.0 2.0 0.00 0.00 0.00 89 1019.3
20260831185544 80 240 1.0 2.0 0.00 0.00 0.00 89 1019.5
20260831185041 80 243 0.0 2.0 0.00 0.00 0.00 90 1019.4
20260831184539 80 234 0.0 2.0 0.00 0.00 0.00 89 1019.3
20260831184208 80 234 0.0 2.0 0.00 0.00 0.00 89 1019.6
20260831183036 80 229 0.0 2.0 0.00 0.00 0.00 89 1019.4
20260831182538 80 229 0.0 2.0 0.00 0.00 0.00 89 1019.4
20260831182034 80 229 1.0 2.0 0.00 0.00 0.00 89 1019.2
20260831181538 80 230 0.0 2.0 0.00 0.00 0.00 90 1019.3
20260831180538 80 230 0.0 2.0 0.00 0.00 0.00 90 1019.4
20260831175034 80 230 0.0 2.0 0.00 0.00 0.00 90 1019.6
20260831174534 80 229 0.0 1.0 0.00 0.00 0.00 89 1019.6
20260831174033 80 230 0.0 2.0 0.00 0.00 0.00 89 1019.6
20260831173535 80 230 1.0 2.0 0.00 0.00 0.00 89 1019.6
20260831173033 80 229 1.0 2.0 0.00 0.00 0.00 89 1019.6
20260831172531 80 229 0.0 2.0 0.00 0.00 0.00 89 1019.5
20260831172034 81 229 0.0 2.0 0.00 0.00 0.00 90 1019.6
20260831171533 80 229 0.0 0.0 0.00 0.00 0.00 90 1019.6
20260831171032 80 230 0.0 0.0 0.00 0.00 0.00 89 1019.6
20260831170039 80 230 0.0 0.0 0.00 0.00 0.00 90 1019.7
20260831165532 80 229 0.0 1.0 0.00 0.00 0.00 90 1019.7
20260831165033 80 230 0.0 1.0 0.00 0.00 0.00 90 1019.8
20260831164036 80 229 0.0 2.0 0.00 0.00 0.00 90 1019.7
20260831163533 79 175 0.0 0.0 0.00 0.00 0.00 90 1019.8
20260831163036 79 175 0.0 0.0 0.00 0.00 0.00 91 1019.9
20260831162535 79 175 0.0 0.0 0.00 0.00 0.00 90 1020.1
20260831162037 79 175 0.0 0.0 0.00 0.00 0.00 90 1020.1
20260831161038 78 175 0.0 0.0 0.00 0.00 0.00 90 1020.2
20260831160531 78 175 0.0 0.0 0.00 0.00 0.00 91 1020.0
20260831155032 78 175 0.0 0.0 0.00 0.00 0.00 91 1020.1
20260831154034 78 175 0.0 0.0 0.00 0.00 0.00 93 1020.1
20260831153532 78 175 0.0 0.0 0.00 0.00 0.00 94 1020.2
20260831153035 77 175 0.0 0.0 0.00 0.00 0.00 92 1020.3
20260831152532 77 175 0.0 0.0 0.00 0.00 0.00 93 1020.3
20260831152033 77 175 0.0 0.0 0.00 0.00 0.00 94 1020.3
20260831151531 77 175 0.0 0.0 0.00 0.00 0.00 94 1020.2
20260831151032 76 175 0.0 0.0 0.00 0.00 0.00 95 1020.3
20260831150532 76 175 0.0 0.0 0.00 0.00 0.00 94 1020.3
20260831150034 76 175 0.0 0.0 0.00 0.00 0.00 95 1020.2
20260831143033 76 175 0.0 1.0 0.00 0.00 0.00 97 1020.1
20260831142030 75 175 0.0 0.0 0.00 0.00 0.00 98 1020.1
20260831140534 75 175 0.0 1.0 0.00 0.00 0.00 100 1020.3
20260831140030 75 175 0.0 0.0 0.00 0.00 0.00 100 1020.2
20260831135529 74 175 0.0 1.0 0.00 0.00 0.00 100 1020.3
20260831135031 74 175 0.0 1.0 0.00 0.00 0.00 100 1020.4
20260831134531 75 175 0.0 1.0 0.00 0.00 0.00 100 1020.2
20260831134030 75 175 0.0 1.0 0.00 0.00 0.00 100 1020.3
20260831133523 75 175 0.0 1.0 0.00 0.00 0.00 100 1020.2
20260831132509 75 175 0.0 1.0 0.00 0.00 0.00 100 1020.1
20260831132006 75 175 0.0 2.0 0.00 0.00 0.00 100 1020.0
20260831131501 75 175 0.0 2.0 0.00 0.00 0.00 100 1020.2
20260831130503 76 175 0.0 1.0 0.00 0.00 0.00 100 1020.2
20260831130009 76 175 0.0 1.0 0.00 0.00 0.00 100 1020.3
20260831125504 76 175 0.0 1.0 0.00 0.00 0.00 100 1020.2
20260831125004 76 175 0.0 0.0 0.00 0.00 0.00 100 1020.1
20260831124504 76 175 0.0 0.0 0.00 0.00 0.00 100 1020.0
20260831124005 75 175 0.0 0.0 0.00 0.00 0.00 100 1020.0
20260831123003 75 175 0.0 0.0 0.00 0.00 0.00 100 1019.9
20260831122501 75 175 0.0 0.0 0.00 0.00 0.00 100 1019.9
20260831121004 75 175 0.0 0.0 0.00 0.00 0.00 100 1019.7
20260831115509 75 175 0.0 0.0 0.00 0.00 0.00 100 1019.8
20260831115003 75 175 0.0 0.0 0.00 0.00 0.00 100 1019.9
20260831114456 74 175 0.0 0.0 0.00 0.00 0.00 100 1019.8
20260831111930 74 175 0.0 0.0 0.00 0.00 0.00 100 1019.7
20260831110925 74 175 0.0 0.0 0.00 0.00 0.00 100 1019.5
20260831110432 74 175 0.0 0.0 0.00 0.00 0.00 100 1019.5
20260831105926 74 175 0.0 0.0 0.00 0.00 0.00 100 1019.5
20260831105426 73 175 0.0 0.0 0.00 0.00 0.00 100 1019.5
20260831104927 73 175 0.0 0.0 0.00 0.00 0.00 100 1019.4
20260831104426 73 175 0.0 0.0 0.00 0.00 0.00 100 1019.2
20260831103922 73 175 0.0 0.0 0.00 0.00 0.00 100 1019.1
20260831103419 73 175 0.0 0.0 0.00 0.00 0.00 100 1019.2
20260831102919 73 175 0.0 0.0 0.00 0.00 0.00 100 1019.0
20260831101919 73 175 0.0 0.0 0.00 0.00 0.00 100 1018.8
20260831101416 73 175 0.0 0.0 0.00 0.00 0.00 100 1018.8
20260831100916 74 175 0.0 0.0 0.00 0.00 0.00 100 1018.8
20260831100412 74 175 0.0 0.0 0.00 0.00 0.00 100 1018.7
20260831095910 74 175 0.0 0.0 0.00 0.00 0.00 100 1018.7
20260831095409 74 175 0.0 0.0 0.00 0.00 0.00 100 1018.7
20260831094908 74 175 0.0 0.0 0.00 0.00 0.00 100 1018.7
20260831094408 74 175 0.0 0.0 0.00 0.00 0.00 100 1018.7
20260831093904 74 175 0.0 0.0 0.00 0.00 0.00 100 1018.7
20260831093356 74 175 0.0 0.0 0.00 0.00 0.00 100 1018.7
20260831092854 74 175 0.0 0.0 0.00 0.00 0.00 100 1018.8
20260831091843 74 175 0.0 1.0 0.00 0.00 0.00 100 1018.7
20260831091335 74 175 0.0 1.0 0.00 0.00 0.00 100 1018.7
20260831090828 74 175 0.0 0.0 0.00 0.00 0.00 100 1018.7
20260831090331 74 175 0.0 0.0 0.00 0.00 0.00 100 1018.6
20260831085828 74 175 0.0 0.0 0.00 0.00 0.00 100 1018.6
20260831085332 74 175 0.0 0.0 0.00 0.00 0.00 100 1018.6
20260831084829 74 175 0.0 0.0 0.00 0.00 0.00 100 1018.5
20260831084332 74 175 0.0 0.0 0.00 0.00 0.00 100 1018.5
20260831083830 74 175 0.0 0.0 0.00 0.00 0.00 100 1018.5
20260831083334 74 175 0.0 1.0 0.00 0.00 0.00 100 1018.5
20260831082832 74 175 0.0 1.0 0.00 0.00 0.00 100 1018.6
20260831082329 74 175 0.0 1.0 0.00 0.00 0.00 100 1018.7
20260831080834 74 175 0.0 1.0 0.00 0.00 0.00 100 1018.7
20260831080332 73 175 0.0 1.0 0.00 0.00 0.00 100 1018.6
20260831075335 74 175 0.0 2.0 0.00 0.00 0.00 98 1018.6
20260831074333 75 250 0.0 1.0 0.00 0.00 0.00 98 1018.6
20260831073331 75 250 0.0 1.0 0.00 0.00 0.00 98 1018.7
20260831072834 75 250 0.0 1.0 0.00 0.00 0.00 98 1018.8
20260831071831 75 250 0.0 0.0 0.00 0.00 0.00 97 1018.9
20260831071329 75 250 0.0 0.0 0.00 0.00 0.00 97 1018.8
20260831070834 75 250 0.0 1.0 0.00 0.00 0.00 97 1018.9
20260831065831 75 250 0.0 0.0 0.00 0.00 0.00 97 1018.9
20260831064829 75 250 0.0 0.0 0.00 0.00 0.00 97 1019.0
20260831064332 75 250 0.0 0.0 0.00 0.00 0.00 97 1019.1
20260831063836 75 250 0.0 0.0 0.00 0.00 0.00 97 1019.0
20260831063334 75 250 0.0 1.0 0.00 0.00 0.00 97 1019.1
20260831062333 75 250 0.0 0.0 0.00 0.00 0.00 97 1019.0
20260831061329 75 250 0.0 1.0 0.00 0.00 0.00 97 1019.1
20260831060828 75 250 0.0 1.0 0.00 0.00 0.00 97 1019.1
20260831060331 75 250 0.0 1.0 0.00 0.00 0.00 97 1019.1
20260831055832 75 250 0.0 1.0 0.00 0.00 0.00 97 1019.1
20260831055333 75 250 0.0 0.0 0.00 0.00 0.00 96 1019.0
20260831054835 75 250 0.0 1.0 0.00 0.00 0.00 96 1019.1
20260831054332 75 250 0.0 2.0 0.00 0.00 0.00 96 1019.0
20260831053829 75 250 0.0 2.0 0.00 0.00 0.00 96 1019.0
20260831053330 75 250 0.0 0.0 0.00 0.00 0.00 96 1019.0
20260831052830 75 250 0.0 0.0 0.00 0.00 0.00 96 1019.1
20260831051835 75 250 0.0 1.0 0.00 0.00 0.00 96 1019.2
20260831051332 75 250 0.0 1.0 0.00 0.00 0.00 96 1019.0
20260831050830 75 250 0.0 3.0 0.00 0.00 0.00 96 1019.0
20260831050333 75 250 0.0 3.0 0.00 0.00 0.00 96 1019.1
20260831045330 75 250 0.0 3.0 0.00 0.00 0.00 96 1019.1
20260831044829 75 250 0.0 3.0 0.00 0.00 0.00 96 1019.2
20260831044332 75 250 0.0 0.0 0.00 0.00 0.00 96 1019.2
20260831043831 75 250 0.0 1.0 0.00 0.00 0.00 96 1019.3
20260831043329 75 250 0.0 1.0 0.00 0.00 0.00 96 1019.4
20260831042833 75 250 0.0 1.0 0.00 0.00 0.00 96 1019.2
20260831042331 75 250 0.0 1.0 0.00 0.00 0.00 96 1019.3
20260831041829 75 250 0.0 1.0 0.00 0.00 0.00 96 1019.3
20260831041330 75 250 0.0 0.0 0.00 0.00 0.00 95 1019.4
20260831040834 75 250 0.0 0.0 0.00 0.00 0.00 95 1019.3
20260831040331 75 250 0.0 3.0 0.00 0.00 0.00 95 1019.4
20260831035833 75 250 0.0 3.0 0.00 0.00 0.00 95 1019.3
20260831035334 75 250 0.0 2.0 0.00 0.00 0.00 95 1019.4
20260831034837 75 250 0.0 2.0 0.00 0.00 0.00 95 1019.4
20260831034339 75 250 0.0 2.0 0.00 0.00 0.00 95 1019.3
20260831033832 75 250 0.0 1.0 0.00 0.00 0.00 95 1019.5
20260831032838 75 250 0.0 1.0 0.00 0.00 0.00 95 1019.5
20260831032331 75 250 0.0 1.0 0.00 0.00 0.00 95 1019.5
20260831031332 75 250 0.0 1.0 0.00 0.00 0.00 94 1019.5
20260831030332 76 250 0.0 1.0 0.00 0.00 0.00 94 1019.7
20260831025331 76 250 0.0 0.0 0.00 0.00 0.00 94 1019.9
20260831024832 76 250 0.0 1.0 0.00 0.00 0.00 94 1020.0
20260831024332 76 250 0.0 1.0 0.00 0.00 0.00 94 1020.0
20260831023330 76 250 0.0 1.0 0.00 0.00 0.00 94 1019.9
20260831022839 76 250 0.0 1.0 0.00 0.00 0.00 94 1020.0
20260831022334 76 250 0.0 0.0 0.00 0.00 0.00 94 1020.0
20260831021332 76 250 0.0 1.0 0.00 0.00 0.00 93 1019.9
20260831020839 76 250 0.0 1.0 0.00 0.00 0.00 93 1019.9
20260831015833 76 250 0.0 0.0 0.00 0.00 0.00 93 1020.0
20260831014833 76 250 0.0 0.0 0.00 0.00 0.00 93 1020.1
20260831014334 76 250 0.0 0.0 0.00 0.00 0.00 92 1020.2
20260831013833 76 250 0.0 1.0 0.00 0.00 0.00 92 1020.2
20260831013334 77 250 0.0 1.0 0.00 0.00 0.00 92 1020.2
20260831012833 77 250 0.0 0.0 0.00 0.00 0.00 92 1020.3
20260831010830 77 250 0.0 2.0 0.00 0.00 0.00 91 1020.3